Portada
METAR-TAF:

METAR-TAF

Aeroports :

Greater Kankakee Airport

Kankakee, Illinois, Estats Units d'Amèrica

latitud: 41-04-17N, longitud: 087-50-47W, altitud: 192 m

Observació

L'informe es va fer fa 24 minuts, a les 02:15 UTC
Vent 4 kt del Sud-Est
Temperatura 22°C
Humitat 94%
Pressió 1014 hPa
Visibilitat: 16.1 km
Cel cobert a una alçada de 1700 ft

METAR: KIKK 160215Z AUTO 13004KT 10SM OVC017 22/21 A2995 RMK AO2 T02170209

Hora: 21:39 (02:39 UTC)


TAF: manca

Observacions i pronòstics meteorològics de més de 4000 aeroports (METAR i TAF).

Les estacions disponibles són els punts grocs i vermells al mapa.

Posi el ratolí al punt desitjat per veure el nom de l'estació.

Feu clic per veure les observacions i els pronòstics meteorològics.

Per canviar el mapa: feu clic els botons verds amb una creu de color negre per apropar; al botó verd amb un guió per allunyar la imatge; o en les fletxes verdes per a mapes adjacents.


METAR-TAF: